GSAT0212 (GALILEO 16) (41860 NORAD) Tracking and Keplerian Element Data

This shows tracking and keplerian element data for the satellite.

Feedback or suggestion? Click here.




ElementValue
Catalog41860
NameGSAT0212 (GALILEO 16)
Epoch Orbit1506
Epoch Day109.60843267
Epoch Year2019
RAAN173.647
Inclination54.5943
Eccentricity0.0004359
Argument of Perigee302.1621
Mean Anonmoly57.8819
Mean Motion1.70473841
Decay Rate2.5E-07
L11 41860U 16069B 19109.60843267 .00000025 00000-0 00000+0 0 9993
L22 41860 54.5943 173.6470 0004359 302.1621 57.8819 1.70473841 15060

Live tracking and technical data element details for GSAT0212 (GALILEO 16) (NORAD 41860). GSAT0212 (GALILEO 16) can be tracked NOW for your location showing map with azimuth and elevation plus other details from your city location.

Track the satellite on the map from your city or location and see movement details for azimuth, elevation, latitude, longitude, range, height, and movement on the map or in text.







IsCatalogInMostPopularTable: catalog: 41860, numindb: 226
Update: records affected: 1



GetName: 41860 GSAT0212 (GALILEO 16)

Hit Count: updated at: Sat, 20 Apr 2019 20:15:01 GMT